Weather History for KNYL - June, 2013

Change the Weather History Date:

Sunday, June 30, 2013

  Actual Average Record
Temperature  
Mean Temperature 99 °F 93 °F  
Max Temperature 112 °F 106 °F 117 °F (1950)
Min Temperature 85 °F 79 °F 61 °F (1910)
Degree Days  
Heating Degree Days 0 0  
Month to date heating degree days 0 0  
Since 1 June heating degree days 0 0  
Since 1 July heating degree days 705 686  
Cooling Degree Days 34 28  
Month to date cooling degree days 805 721  
Year to date cooling degree days 1866 1633  
Since 1 June cooling degree days 805 721  
Growing Degree Days 48 (Base 50)    
Moisture  
Dew Point 59 °F    
Average Humidity 30    
Maximum Humidity 44    
Minimum Humidity 15    
Precipitation  
Precipitation 0.00 in 0.00 in 0.06 in (1924)
Month to date precipitation 0.00 0.01  
Year to date precipitation 1.11 1.33  
Sea Level Pressure  
Sea Level Pressure 29.67 in    
Wind  
Wind Speed 12 mph (South)    
Max Wind Speed 26 mph    
Max Gust Speed 32 mph    
Visibility 10 miles    
Events      
T = Trace of Precipitation, MM = Missing Value Source: NWS Daily Summary

Daily Weather History Graph

Daily Weather History Graph

Search for Another Location

Airport or City:

Trip Planner

Search our weather history database for the weather conditions in past years. The results will help you decide how hot, cold, wet, or windy it might be!

Date:

Astronomy

Jun. 30, 2013 Rise Set
Actual Time 5:34 AM MST 7:50 PM MST
Civil Twilight 5:05 AM MST 8:18 PM MST
Nautical Twilight 4:30 AM MST 8:53 PM MST
Astronomical Twilight 3:52 AM MST 9:31 PM MST
Moon 12:19 AM MST 1:22 PM MST
Length of Visible Light 15h 13m
Length of Day
14h 16m
Last Quarter, 44% of the Moon is Illuminated
Jun 30
Last Quarter
Jul 8
New
Jul 15
First Quarter
Jul 22
Full
Jul 29
Last Quarter

Hourly Weather History & Observations

Time (MST) Temp. Heat Index Dew Point Humidity Pressure Visibility Wind Dir Wind Speed Gust Speed Precip Events Conditions
12:57 AM 88.0 °F 87.1 °F 59.0 °F 37% 29.66 in 10.0 mi South 6.9 mph - N/A   Scattered Clouds
1:57 AM 88.0 °F 86.7 °F 57.0 °F 35% 29.65 in 10.0 mi SSE 8.1 mph - N/A   Scattered Clouds
2:57 AM 90.0 °F 87.7 °F 54.0 °F 29% 29.64 in 10.0 mi SSE 10.4 mph - N/A   Mostly Cloudy
3:57 AM 91.0 °F 88.9 °F 55.0 °F 29% 29.65 in 10.0 mi Calm Calm - N/A   Mostly Cloudy
4:57 AM 88.0 °F 86.5 °F 55.9 °F 34% 29.69 in 10.0 mi SW 4.6 mph - N/A   Mostly Cloudy
5:57 AM 86.0 °F 85.0 °F 57.9 °F 38% 29.68 in 10.0 mi South 11.5 mph - N/A   Mostly Cloudy
6:57 AM 87.1 °F 86.5 °F 59.0 °F 39% 29.69 in 10.0 mi SSW 11.5 mph - N/A   Mostly Cloudy
7:57 AM 89.1 °F 88.2 °F 59.0 °F 36% 29.73 in 10.0 mi South 5.8 mph - N/A   Mostly Cloudy
8:57 AM 91.9 °F 91.8 °F 61.0 °F 35% 29.75 in 10.0 mi South 12.7 mph - N/A   Mostly Cloudy
9:57 AM 95.0 °F 97.0 °F 64.0 °F 36% 29.74 in 10.0 mi South 13.8 mph - N/A   Mostly Cloudy
10:57 AM 99.0 °F 100.5 °F 62.1 °F 30% 29.73 in 10.0 mi South 12.7 mph - N/A   Scattered Clouds
11:57 AM 102.0 °F 103.3 °F 61.0 °F 26% 29.71 in 10.0 mi South 9.2 mph 18.4 mph N/A   Scattered Clouds
12:57 PM 107.1 °F 106.7 °F 55.9 °F 19% 29.69 in 10.0 mi South 11.5 mph - N/A   Scattered Clouds
1:57 PM 109.9 °F 107.9 °F 53.1 °F 15% 29.67 in 10.0 mi South 11.5 mph 18.4 mph N/A   Partly Cloudy
2:57 PM 111.0 °F 109.3 °F 54.0 °F 15% 29.64 in 10.0 mi South 12.7 mph - N/A   Partly Cloudy
3:57 PM 109.9 °F 110.2 °F 57.0 °F 18% 29.62 in 10.0 mi South 16.1 mph - N/A   Partly Cloudy
4:57 PM 108.0 °F 108.0 °F 57.0 °F 19% 29.60 in 10.0 mi SSW 13.8 mph - N/A   Partly Cloudy
5:57 PM 105.1 °F 106.4 °F 60.1 °F 23% 29.61 in 10.0 mi South 15.0 mph - N/A   Scattered Clouds
6:57 PM 100.9 °F 103.3 °F 63.0 °F 29% 29.61 in 10.0 mi South 12.7 mph - N/A   Mostly Cloudy
7:57 PM 98.1 °F 97.7 °F 59.0 °F 27% 29.62 in 10.0 mi South 10.4 mph - N/A   Mostly Cloudy
8:57 PM 97.0 °F 97.4 °F 61.0 °F 30% 29.64 in 10.0 mi SSE 20.7 mph - N/A   Mostly Cloudy
9:57 PM 93.0 °F 94.2 °F 63.0 °F 37% 29.67 in 10.0 mi SSE 23.0 mph - N/A   Mostly Cloudy
10:57 PM 90.0 °F 91.7 °F 64.9 °F 43% 29.68 in 10.0 mi SSE 17.3 mph - N/A   Mostly Cloudy
11:57 PM 89.1 °F 90.0 °F 63.0 °F 42% 29.68 in 6.0 mi SSE 25.3 mph - N/A   Haze